Flag for Germany Weather past 2 weeks in Herford, North Rhine-Westphalia, Germany

Now
54 °F

Fog.


Feels Like: 53 °F
Forecast: 54 / 76 °F
Wind: 3 mph from West

Location: Bueckeburg

Current Time: Aug 28, 2015 at 7:19:29 AM

Latest Report: Aug 28, 2015 at 6:20 AM


Visibility: 3 mi

Pressure: 29.95 "Hg

Humidity: 94%

Dew point: 52 °F

Location of HerfordLocation

Historic Weather in Herford — Graph

°F

Herford temperature yesterday

Maximum temperature yesterday: 73 °F (at 1:20 AM)
Minimum temperature yesterday: 57 °F (at 11:20 PM)
Average temperature yesterday: 66 °F

Past Weeks' High & Low Weather Summary

 TemperatureHumidityPressure
High82 °F (Aug 13, 4:20 PM)100% (Aug 15, 3:20 AM)30.27 "Hg (Aug 15, 3:20 AM)
Low54 °F (Aug 19, 6:20 AM)32% (Aug 22, 12:20 PM)29.56 "Hg (Aug 24, 6:20 PM)
Average67 °F74%29.93 "Hg
* Reported Aug 13 5:20 AM — Aug 28 5:20 AM, Herford, Weather by CustomWeather, © 2015

Note: Actual official high and low records may vary slightly from our data, if they occured in-between our weather recording intervals... More about our weather records

Advertising

Herford weather history for previous 24 hours

 ConditionsComfort  
Time TempWeatherWind HumidityBarometerVisibility
5:20 AM
Fri, Aug 28
55 °FPassing clouds.5 mph94%29.95 "Hg4 mi
4:20 AM57 °FPartly cloudy.6 mph88%29.92 "HgN/A
3:20 AM57 °FMostly cloudy.5 mph94%29.92 "HgN/A
2:20 AM57 °FOvercast.6 mph94%29.89 "HgN/A
1:20 AM57 °FLight rain. Mostly cloudy.2 mph94%29.89 "Hg5 mi
12:20 AM57 °FRain. Mostly cloudy.5 mph94%29.89 "Hg4 mi
11:20 PM
Thu, Aug 27
57 °FRain. Partly cloudy.3 mph100%29.86 "Hg4 mi
10:20 PM59 °FDrizzle. Mostly cloudy.6 mph94%29.86 "Hg4 mi
9:20 PM59 °FDrizzle. Fog.2 mph100%29.86 "Hg2 mi
9:02 PM59 °FDrizzle. Partly sunny.5 mph100%29.86 "Hg4 mi
8:20 PM59 °FDrizzle. Broken clouds.7 mph94%29.86 "Hg4 mi
7:47 PM59 °FDrizzle. Fog.6 mph100%29.83 "Hg3 mi
7:20 PM59 °FDrizzle. Fog.9 mph100%29.83 "Hg3 mi
6:20 PM61 °FRain. Fog.2 mph94%29.83 "Hg3 mi
5:56 PM61 °FRain. Fog.6 mph94%29.83 "Hg3 mi
5:20 PM61 °FRain. Mostly cloudy.6 mph94%29.86 "Hg4 mi
4:20 PM64 °FRain. More clouds than sun.7 mph83%29.86 "HgN/A
3:20 PM68 °FLight rain. More clouds than sun.9 mph64%29.83 "HgN/A
2:20 PM68 °FOvercast.7 mph64%29.83 "HgN/A
1:20 PM70 °FOvercast.12 mph60%29.83 "HgN/A
12:20 PM70 °FPartly sunny.10 mph60%29.86 "HgN/A
11:20 AM70 °FMore clouds than sun.16 mph64%29.83 "HgN/A
10:20 AM70 °FLight rain. More clouds than sun.15 mph73%29.83 "HgN/A
9:20 AM70 °FMostly cloudy.12 mph69%29.80 "HgN/A
8:20 AM70 °FLight rain. Broken clouds.10 mph64%29.80 "HgN/A
7:20 AM70 °FPassing clouds.6 mph64%29.77 "HgN/A
Weather by CustomWeather, © 2015

See weather overviewHow to use our weather pages